FW8285 Weather Reports


Display with metric or nautical units.
time (UTC)temp
F
wind
direction
speed
MPH
gust
MPH
rain 1hr
in
rain 24hr
in
rain mn
in
humidity
%
barometer
mb
20260906074605 59 0 0.0 0.0 0.00 0.00 0.00 94 1013.7
20260906073105 59 0 0.0 0.0 0.00 0.00 0.00 94 1013.7
20260906071548 59 0 0.0 0.0 0.00 0.00 0.00 94 1013.7
20260906070045 60 0 0.0 0.0 0.00 0.00 0.00 93 1013.6
20260906064551 60 0 0.0 0.0 0.00 0.00 0.00 92 1013.7
20260906063051 61 0 0.0 0.0 0.00 0.00 0.00 92 1013.5
20260906061550 61 0 0.0 0.0 0.00 0.00 0.00 92 1013.6
20260906060044 61 0 0.0 1.0 0.00 0.00 0.00 92 1013.6
20260906054552 62 0 0.0 0.0 0.00 0.00 0.00 92 1013.8
20260906053049 62 0 0.0 4.0 0.00 0.00 0.00 91 1013.8
20260906051558 62 0 0.0 0.0 0.00 0.00 0.00 91 1013.9
20260906050107 62 0 0.0 3.0 0.00 0.00 0.00 91 1013.8
20260906044553 62 0 0.0 1.0 0.00 0.00 0.00 92 1013.9
20260906043057 62 0 0.0 1.0 0.00 0.00 0.00 93 1013.9
20260906041547 62 0 0.0 2.0 0.00 0.00 0.00 94 1013.9
20260906040054 62 0 0.0 0.0 0.00 0.00 0.00 94 1013.9
20260906034608 62 0 0.0 0.0 0.00 0.00 0.00 94 1013.8
20260906033048 62 0 0.0 0.0 0.00 0.00 0.00 94 1013.9
20260906031550 62 0 0.0 0.0 0.00 0.00 0.00 94 1013.7
20260906030052 62 0 0.0 0.0 0.00 0.00 0.00 93 1013.7
20260906024549 63 0 0.0 0.0 0.00 0.00 0.00 93 1013.5
20260906023047 63 0 0.0 0.0 0.00 0.00 0.00 92 1013.4
20260906021547 63 0 0.0 0.0 0.00 0.00 0.00 93 1013.5
20260906020105 64 0 0.0 0.0 0.00 0.00 0.00 93 1013.4
20260906014549 64 0 0.0 0.0 0.00 0.00 0.00 92 1013.3
20260906013102 64 0 0.0 0.0 0.00 0.00 0.00 92 1013.2
20260906011549 64 0 0.0 0.0 0.00 0.00 0.00 91 1013.2
20260906010052 64 0 0.0 0.0 0.00 0.00 0.00 90 1013.2
20260906004545 65 0 0.0 0.0 0.00 0.00 0.00 90 1013.1
20260906003048 65 0 0.0 0.0 0.00 0.00 0.00 89 1013.1
20260906001548 65 0 0.0 0.0 0.00 0.00 0.00 88 1013.1
20260906000055 66 0 0.0 0.0 0.00 0.00 0.00 87 1012.8
20260905234543 66 0 0.0 0.0 0.00 0.00 0.00 86 1012.7
20260905233049 67 0 0.0 1.0 0.00 0.00 0.00 85 1012.7
20260905231550 67 0 0.0 0.0 0.00 0.00 0.00 84 1012.8
20260905230051 68 0 0.0 0.0 0.00 0.00 0.00 82 1012.7
20260905224552 69 0 0.0 1.0 0.00 0.00 0.00 81 1012.5
20260905223052 70 0 0.0 3.0 0.00 0.00 0.00 79 1012.3
20260905221551 70 0 0.0 6.0 0.00 0.00 0.00 78 1012.3
20260905220045 70 36 0.0 5.0 0.00 0.00 0.00 77 1012.1
20260905214552 71 0 0.0 4.0 0.00 0.00 0.00 78 1011.9
20260905213048 71 0 0.0 0.0 0.00 0.00 0.00 76 1012.0
20260905211545 72 0 0.0 5.0 0.00 0.00 0.00 76 1011.9
20260905204553 73 0 0.0 3.0 0.00 0.00 0.00 73 1011.8
20260905203107 72 0 0.0 3.0 0.00 0.00 0.00 73 1011.8
20260905201550 73 0 0.0 4.0 0.00 0.00 0.00 72 1011.8
20260905200046 73 0 0.0 5.0 0.00 0.00 0.00 68 1011.6
20260905194555 75 9 3.0 12.0 0.00 0.00 0.00 66 1011.5
20260905193048 74 0 0.0 3.0 0.00 0.00 0.00 72 1011.3
20260905191549 75 98 1.0 4.0 0.00 0.00 0.00 73 1011.5
20260905190045 74 0 0.0 3.0 0.00 0.00 0.00 74 1011.5
20260905184557 71 348 0.0 3.0 0.00 0.00 0.00 81 1011.7
20260905183051 69 0 0.0 3.0 0.00 0.00 0.00 84 1011.7
20260905181545 67 15 0.0 2.0 0.00 0.00 0.00 86 1011.8
20260905180047 68 0 0.0 4.0 0.00 0.00 0.00 84 1011.7
20260905174553 71 0 2.0 11.0 0.00 0.00 0.00 75 1011.8
20260905173048 73 0 1.0 7.0 0.00 0.00 0.00 67 1011.5
20260905171556 73 21 0.0 4.0 0.00 0.00 0.00 70 1011.5
20260905170046 73 0 0.0 1.0 0.00 0.00 0.00 71 1011.6
20260905164551 73 5 0.0 4.0 0.00 0.00 0.00 72 1011.6
20260905163053 74 0 0.0 4.0 0.00 0.00 0.00 70 1011.6
20260905161547 74 22 0.0 5.0 0.00 0.00 0.00 69 1011.6
20260905160043 74 0 1.0 5.0 0.00 0.00 0.00 67 1011.6
20260905154615 72 0 0.0 2.0 0.00 0.00 0.00 76 1011.8
20260905153048 72 0 0.0 4.0 0.00 0.00 0.00 73 1012.0
20260905151552 71 247 2.0 7.0 0.00 0.00 0.00 73 1012.0
20260905150053 71 279 1.0 7.0 0.00 0.00 0.00 74 1012.1
20260905144545 70 242 1.0 6.0 0.00 0.00 0.00 77 1012.0
20260905143059 69 231 2.0 7.0 0.00 0.00 0.00 76 1012.0
20260905141547 69 0 0.0 5.0 0.00 0.00 0.00 79 1012.1
20260905140046 68 0 0.0 3.0 0.00 0.00 0.00 81 1012.1
20260905134545 68 302 1.0 4.0 0.00 0.00 0.00 84 1012.2
20260905133052 66 0 0.0 4.0 0.00 0.00 0.00 86 1012.3
20260905131549 65 0 1.0 6.0 0.00 0.00 0.00 87 1012.4
20260905130050 64 0 0.0 2.0 0.00 0.00 0.00 91 1012.4
20260905124545 63 0 0.0 6.0 0.00 0.00 0.00 94 1012.3
20260905123053 62 0 1.0 4.0 0.00 0.00 0.00 96 1012.3
20260905121549 61 0 0.0 2.0 0.00 0.00 0.00 97 1012.2
20260905120052 60 0 0.0 1.0 0.00 0.00 0.00 98 1012.0
20260905114559 60 0 0.0 4.0 0.00 0.00 0.00 98 1011.9
20260905113051 59 0 0.0 0.0 0.00 0.00 0.00 98 1011.6
20260905111620 58 0 0.0 0.0 0.00 0.00 0.00 98 1011.5
20260905110053 58 0 0.0 0.0 0.00 0.00 0.00 97 1011.3
20260905104613 58 0 0.0 0.0 0.00 0.00 0.00 97 1011.1
20260905103048 58 0 0.0 0.0 0.00 0.00 0.00 97 1011.0
20260905101550 57 0 0.0 0.0 0.00 0.00 0.00 96 1010.8
20260905100049 58 0 0.0 0.0 0.00 0.00 0.00 96 1010.7
20260905094647 59 0 0.0 0.0 0.00 0.00 0.00 95 1010.7
20260905093049 59 0 0.0 0.0 0.00 0.00 0.00 95 1010.7
20260905091547 60 0 0.0 0.0 0.00 0.00 0.00 95 1010.6
20260905090048 61 0 0.0 1.0 0.00 0.00 0.00 95 1010.5
20260905084601 61 0 0.0 3.0 0.00 0.00 0.00 95 1010.6
20260905083047 61 0 0.0 0.0 0.00 0.00 0.00 95 1010.8
20260905081543 61 0 0.0 0.0 0.00 0.00 0.00 95 1010.6
20260905080104 61 0 0.0 0.0 0.00 0.00 0.00 95 1010.8